Location: Unspecified
(0.0000°N, 0.0000°E)
Time: 09:23:04
(UTC+00:00)

A-11 Canister half - Pass Details

Date: 17 June 2024
Orbit: 1515 x 1684 km, 47.2° (Epoch: 23 July)

Event Time Altitude Azimuth Distance (km) Brightness Sun altitude
Rises 01:42:03 0° 353° (N) 4,710 11.8 -56.1°
Reaches altitude 10° 01:47:28 10° 18° (NNE) 3,698 11.3 -55.1°
Maximum altitude 01:51:35 14° 45° (NE) 3,407 11.2 -54.4°
Drops below altitude 10° 01:55:39 10° 72° (ENE) 3,673 11.3 -53.6°
Sets 02:00:55 0° 96° (E) 4,651 11.9 -52.7°
